[ ตารางข้อมูล ] [ Min-Max ] [ วันนี้2 ] [ วันนี้4 ] [ เทียบ-A 3วัน ] [ เทียบ-B 4วัน ]   

วันนี้4   [ ◀ ช่วงเก่ากว่า ] [ ช่วงที่ 57 ] [ ช่วงใหม่กว่า ▶ ] [ ล่าสุด ]    [ 3 ชั่วโมง ] [ 6 ชั่วโมง ] [ 12 ชั่วโมง ] [ 24 ชั่วโมง ]   วันนี้4

อุณภูมิในตู้ Knockdown4529  ราย 24 ชั่วโมง  ที่วัดได้ ในช่วงวันเวลา 08/07/2026 (09:58) ถึง 09/07/2026 (09:58) 
ความชื้นในตู้ Knockdown4529  ราย 24 ชั่วโมง  ที่วัดได้ ในช่วงวันเวลา 08/07/2026 (09:58) ถึง 09/07/2026 (09:58) 
การใช้ไฟฟ้าในตู้ Knockdown4529  ราย 24 ชั่วโมง  ที่วัดได้ ในช่วงวันเวลา 08/07/2026 (09:58) ถึง 09/07/2026 (09:58) 

  DS18B20SHTC3PZEM-004TWiFi 
IDDate d/m/Y & Timedata1
สูง
data2
ต่ำ
data3
นอก
temp
pcb
hum
pcb
VoltAmpWattrssiTime
 1621  09/07/2026 09:57:06  31.0  30.8  32.1  31.5  65.5  233.6  0.04  4.7  -80  09:57 
 1619  09/07/2026 09:47:40  30.8  30.7  31.9  31.2  65.7  233.7  0.04  4.6  -84  09:47 
 1618  09/07/2026 09:42:56  30.8  30.6  32.1  31.2  65.7  233.8  0.04  4.6  -83  09:42 
 1617  09/07/2026 09:38:11  30.7  30.5  31.8  31.1  65.8  233.3  0.04  4.4  -85  09:38 
 1615  09/07/2026 09:28:40  30.5  30.4  31.9  30.9  66.0  233.4  0.04  4.6  -81  09:28 
 1614  09/07/2026 09:23:58  30.4  30.3  31.5  30.8  66.1  234.6  0.04  4.6  -83  09:23 
 1613  09/07/2026 09:19:16  30.4  30.2  31.7  30.7  66.0  233.5  0.04  4.6  -85  09:19 
 1611  09/07/2026 09:09:50  30.2  30.1  31.9  30.6  66.2  234.1  0.04  4.6  -76  09:09 
 1610  09/07/2026 09:05:06  30.1  30.0  31.9  30.5  66.5  233.9  0.04  4.6  -79  09:05 
 1609  09/07/2026 09:00:23  30.0  29.9  31.2  30.3  66.6  234.3  0.04  4.6  -82  09:00 
 1608  09/07/2026 08:55:41  29.9  29.8  31.2  30.2  66.8  234.5  0.04  4.6  -83  08:55 
 1607  09/07/2026 08:50:58  29.8  29.8  30.5  30.1  66.8  233.8  0.04  4.6  -80  08:50 
 1606  09/07/2026 08:46:15  29.7  29.7  30.5  30.1  66.8  234.2  0.04  4.6  -79  08:46 
 1605  09/07/2026 08:41:32  29.6  29.6  30.6  30.0  67.1  234.7  0.04  4.6  -77  08:41 
 1604  09/07/2026 08:36:50  29.5  29.5  30.5  29.7  67.2  234.8  0.04  4.6  -79  08:36 
 1603  09/07/2026 08:32:08  29.4  29.4  30.5  29.5  67.3  234.7  0.04  4.6  -78  08:32 
 1602  09/07/2026 08:27:25  29.4  29.4  30.3  29.7  67.5  234.3  0.04  4.6  -80  08:27 
 1601  09/07/2026 08:22:43  29.3  29.3  30.0  29.6  67.5  234.5  0.04  4.6  -82  08:22 
 1600  09/07/2026 08:18:00  29.2  29.2  29.4  29.4  67.7  234.6  0.04  4.6  -83  08:18 
 1599  09/07/2026 08:13:19  29.1  29.1  29.4  29.5  67.8  234.2  0.04  4.6  -80  08:13 
 1598  09/07/2026 08:08:37  29.1  29.1  29.4  29.2  68.2  234.4  0.04  4.6  -82  08:08 
 1596  09/07/2026 07:59:11  28.9  28.9  29.1  29.0  68.2  234.0  0.04  4.6  -84  07:59 
 1595  09/07/2026 07:54:27  28.9  28.9  29.0  29.0  68.3  234.1  0.04  4.6  -84  07:54 
 1594  09/07/2026 07:49:42  28.8  28.9  28.7  29.1  68.3  234.0  0.04  4.6  -85  07:49 

Data every 5 minute.


ใช้เวลาประมวลผล 0.01657 วินาที